Regional Weather Roundup
Issued by NWS

Home | Current Version | Previous Version | Text Only | Print | Product List | Glossary Off
Versions: 1 2 3 4 5 6 7 8 9 10 11 12 13 14 15 16 17 18 19 20 21 22 23 24 25 26 27 28 29 30 31 32 33 34 35 36 37 38 39 40 41 42 43 44 45 46 47 48 49 50

000
ASUS43 KLSX 072159
RWRMO

WEATHER SUMMARY FOR MISSOURI
NATIONAL WEATHER SERVICE SPRINGFIELD MO
500 PM CDT TUE JUL 07 2015

NOTE: "FAIR" INDICATES FEW OR NO CLOUDS BELOW 12,000 FEET WITH NO
       SIGNIFICANT WEATHER AND/OR OBSTRUCTIONS TO VISIBILITY.
       CURRENT SKY AND/OR WEATHER CONDITIONS ARE NOT AVAILABLE FOR
       CHILLICOTHE AND FARMINGTON.

MOZ001>031-035>038-043-044-053-054-072300-
...NORTHERN AND WESTERN MISSOURI...

CITY           SKY/WX    TMP DP  RH WIND       PRES   REMARKS
KANSAS CTY INT CLOUDY    71  59  65 NE12      30.05F
KANSAS C DTWN  CLOUDY    72  58  61 NE10      30.04S
LEE`S SUMMIT   CLOUDY    72  59  63 N13       30.05S
ST JOSEPH      CLOUDY    72  56  57 NE7       30.06S
CHILLICOTHE      N/A     75  58  55 NE10      30.06S
KIRKSVILLE     HVY RAIN  73  57  57 NE8       30.06S

$$
MOZ066>068-077>081-088>096-101>105-072300-
...SOUTHWEST MISSOURI...

CITY           SKY/WX    TMP DP  RH WIND       PRES   REMARKS
SPRINGFIELD    FOG       68  66  93 N9        30.01F VSB 1
JOPLIN         CLOUDY    66  63  90 N6        30.03F FOG

$$
MOZ032>034-039>042-045>050-055>058-069>072-072300-
...CENTRAL MISSOURI...

CITY           SKY/WX    TMP DP  RH WIND       PRES   REMARKS
COLUMBIA       LGT RAIN  68  64  87 E5        30.03S FOG
JEFFERSON CITY CLOUDY    67  63  87 E6        30.02F FOG
ROLLA          CLOUDY    65  64  97 N8        30.01S FOG
SEDALIA        RAIN      69  64  84 E3        30.05R
OSAGE BEACH    CLOUDY    66  63  88 N3        30.03S

$$
MOZ051-052-059>065-072300-
...EAST CENTRAL MISSOURI...

CITY           SKY/WX    TMP DP  RH WIND       PRES   REMARKS
ST LOUIS INTL  LGT RAIN  70  64  81 N8        30.02R
SPIRIT OF STL  CLOUDY    68  66  93 N7        30.01R FOG
ST CHARLES     CLOUDY    68  65  90 N9        30.01S

$$
MOZ072>076-082>087-097>100-106>115-072300-
...SOUTH CENTRAL AND SOUTHEAST MISSOURI...

CITY           SKY/WX    TMP DP  RH WIND       PRES   REMARKS
CAPE GIRARDEAU CLOUDY    76  73  91 W3        29.97F
FARMINGTON     CLOUDY    75  73  94 S7        30.02S
POPLAR BLUFF   LGT RAIN  77  73  87 W9        29.97S
WEST PLAINS    CLOUDY    74  70  87 W5        30.01F

$$


USA.gov is the U.S. government's official web portal to all federal, state and local government web resources and services.